Location: Aufkirchen
(47.9603°N, 11.3653°E)
Time: 14:13:06
(UTC+01:00)

Transit 2A Rocket - Pass Details

Date: 12 December 2020
Orbit: 592 x 910 km, 66.7° (Epoch: 21 January)

Event Time Altitude Azimuth Distance (km) Brightness Sun altitude
Rises 05:37:32 0° 328° (NNW) 3,180 - -22.0°
Reaches altitude 10° 05:40:41 10° 347° (NNW) 2,187 - -21.4°
Exits shadow 05:41:20 12° 353° (N) 2,018 7.0 -21.3°
Maximum altitude 05:44:08 19° 31° (NNE) 1,616 6.9 -20.9°
Drops below altitude 10° 05:47:23 10° 76° (ENE) 2,052 8.1 -20.3°
Sets 05:50:13 0° 95° (E) 2,911 9.6 -19.9°
